Regional Weather Roundup
Issued by NWS

Home | Current Version | Previous Version | Graphics & Text | Print | Product List | Glossary On
Versions: 1 2 3 4 5 6 7 8 9 10 11 12 13 14 15 16 17 18 19 20 21 22 23 24 25 26 27 28 29 30 31 32 33 34 35 36 37 38 39 40 41 42 43 44 45 46 47 48 49 50
000
ASUS45 KBOI 032210
RWRID

IDAHO REGIONAL WEATHER ROUNDUP
NATIONAL WEATHER SERVICE BOISE ID
400 PM MDT THU SEP 03 2015

NOTE: "FAIR" INDICATES FEW OR NO CLOUDS BELOW 12000 FEET
WITH NO SIGNIFICANT WEATHER AND/OR OBSTRUCTIONS TO VISIBILITY

IDZ012-014-032300-
SOUTHWEST IDAHO


CITY           SKY/WX    TMP DP  RH WIND       PRES   REMARKS
BOISE          MOSUNNY   70  42  36 NW17G23   29.88F
CALDWELL       MOSUNNY   64  37  36 NW13      29.93F
MOUNTAIN HOME  MOSUNNY   71  40  32 NW21G26   29.85F
$$

IDZ016-017-032300-
SOUTHCENTRAL IDAHO


CITY           SKY/WX    TMP DP  RH WIND       PRES   REMARKS
BURLEY         MOSUNNY   72  44  36 W10       29.84F
JEROME         MOSUNNY   71  42  35 W13       29.86F
TWIN FALLS     MOSUNNY   71  40  32 W9        29.87F
$$

IDZ019>023-032300-
SOUTHEAST IDAHO


CITY           SKY/WX    TMP DP  RH WIND       PRES   REMARKS
IDAHO FALLS    MOSUNNY   80  35  19 SW14      29.84F
POCATELLO      MOSUNNY   80  37  21 W9G16     29.84F
REXBURG        MOSUNNY   80  35  19 SW15G21   29.84F
$$

IDZ006-010-011-018-031-032-032300-
CENTRAL IDAHO MOUNTAINS


CITY           SKY/WX    TMP DP  RH WIND       PRES   REMARKS
MCCALL         CLOUDY    52  40  63 SE8       29.96F
HAILEY         MOSUNNY   72  37  28 W12       29.91F
STANLEY          N/A     64  31  28 W8        29.94R
SALMON         CLOUDY    64  46  52 CALM      29.81S
CHALLIS        CLOUDY    73  29  19 SW8       29.81S
$$

IDZ002-004-006-007-026-032300-
NORTHERN IDAHO


CITY           SKY/WX    TMP DP  RH WIND       PRES   REMARKS
LEWISTON       PTSUNNY   63  42  46 VRB5      29.95F
LOWELL           N/A     56  52  86 VRB3      29.99S
COEUR D`ALENE  MOSUNNY   63  34  34 SW3       29.92S
MULLAN PASS    LGT RAIN  41  37  86 CALM      29.99S
$$



USA.gov is the U.S. government's official web portal to all federal, state and local government web resources and services.